Tracking 26321 objects as of 27-Nov-2022
HD Live streaming from Space Station
objects crossing your sky now

STARLINK-3927

Track STARLINK-3927 now!
10-day predictions
STARLINK-3927 is classified as:


NORAD ID: 52569
Int'l Code: 2022-051AN
Perigee: 545.3 km
Apogee: 548.5 km
Inclination: 53.2 °
Period: 95.4 minutes
Semi major axis: 6917 km
RCS: Unknown
Launch date: May 13, 2022
Source: United States (US)
Launch site: AIR FORCE WESTERN TEST RANGE (AFWTR)
aabbcc
Your satellite tracking list
Your tracking list is empty




NASA's NSSDC Master Catalog

Two Line Element Set (TLE):
1 52569U 22051AN  22330.75465297  .00001387  00000-0  10521-3 0  9993
2 52569  53.2182 101.3494 0002307  40.2234 319.8929 15.08843740 30586
Source of the keplerian elements: AFSPC